Starlink 11619

operational
NORAD ID: 63272 Int'l Des: 2025-053 Owner: SPXS Country: US Constellation: starlink
LEOCIRCULAR

Starlink 11619について

説明を読み込み中...

リアルタイム位置

3D地球を読み込み中...

次回通過

高度履歴

Altitude vs Time

uPlot chart will show altitude changes over time

軌道要素

1 63272U 25053H 25353.60408270 .00202846 00000-0 15263-2 0 9991
2 63272 43.0000 235.0002 0003111 234.7656 125.2921 15.71144100 45072
Epoch: Dec 19, 2025 • Age: 18 hours

現在のステータス

高度 362.6 km
速度 7.69 km/s
衛星直下点 -34.63°S, 115.4°W
打ち上げ日 Mar 15, 2025
運用期間 0.7 years
タイプ internet

技術仕様

分類 Payload
質量 960.00 kg
乾燥質量 910.00 kg
総質量 960.00 kg
長さ 0.30 m
直径 4.10 m
スパン 29.00 m
形状 Box + pan
製造者 SPXS
バスタイプ Starlink V2MD
フェーズステータス In Orbit
所有者/国 SPXS/US

大規模コンステレーション

Loading constellations...